CZ-6A DEB, 56270

Orbit data source: Space-Track

CZ-6A DEB, 56270 is space debris in SSO originally from a launch on Fri, 11 Nov 2022 UTC launched from the Taiyaun Space Center, China (TSC). Debris objects in space refer to the collection of defunct objects orbiting the Earth. Examples of debris include non-operational satellites, rocket bodies, and fragments generated from explosions, collisions, or faulty payload assembly.

Loading next visibility...
Identifier
56270, 2022-151ACN
Orbit
SSO
Country
Flag of CNCN / PRC
Related business
Manufacturer
SAST
Mission
Spacecraft
Bus & Motor
Unknown
Mass
Unknown
Launch date (UTC)
2022-11-11 (4 years ago)
Launch vehicle
Unknown
Launch site
Taiyaun Space Center, China (TSC)
Object type
Payload
Rocket body
Debris
Shape & HBR
Unknown shape, 0.1 m
Radar Cross Section
Medium (>0.1 m² and <1 m²)

Expand to show TLE details & history
Last TLE update: 2 days ago

TLE from 2 days ago
0 CZ-6A DEB
1 56270U 22151ACN 26171.13319492  .00010287  00000-0  14712-2 0  9995
2 56270  98.6216 240.5039 0064437 258.5857 100.8108 14.75418686176340
Epoch: 2026-06-20T03:11Z
TLE epoch observation values (Epoch: 2026-06-20T03:11:48.041Z)
Latitude
0.00004°
Longitude
-75.79847°
Altitude
655.585 km
Speed
7.525 km/s
True Right ascension
16h 02m 00s
True Declination
0° 00' 00"
Sunlit
Object was in full shadow at epoch
Visualization orbit readout
Latitude
Unknown
Longitude
Unknown
Altitude
Unknown
Speed
Unknown
Apparent Right ascension
Unknown
Apparent Declination
Unknown
Sunlit
N/A
Visualization observer readout
Local Sidereal Time
21:51:58
Azimuth
Unknown
Elevation
Unknown
Doppler factor
Unknown
Orbital elements
Apogee altitude
686.132 km
Perigee altitude
595.674 km
Semi-major axis
7,019.04 km
Eccentricity
0.00644
Inclination
98.6216°
RAAN
240.5039°
Arg. of periapsis
258.5857°
True anomaly
101.53498°
Mean anomaly
100.8108°
Eccentric anomaly
101.173°
Mean motion
3.69085 °/min
Orbital period
97.54 mins
BSTAR
0.0014712
Loading maneuver chart data...
Computing Atmospheric mass density...
Loading historical data...
Loading historical data...
Loading historical data...
Loading historical data...
Loading historical data...
Loading historical data...
Loading historical data...

Documentation

Showing up to 5 results
|